GW5715 Weather Reports


time (UTC)temp
C
wind
direction
speed
KPH
gust
KPH
rain 1hr
cm
rain 24hr
cm
rain mn
cm
humidity
%
barometer
mb
20260509024636 25 111 0.0 0.0 0.00 0.00 0.00 77 1009.0
20260509024132 25 124 3.2 3.2 0.00 0.00 0.00 78 1009.0
20260509023630 25 141 0.0 1.6 0.00 0.00 0.00 78 1009.0
20260509023127 24 79 0.0 1.6 0.00 0.00 0.00 79 1008.8
20260509022623 24 152 1.6 3.2 0.00 0.00 0.00 78 1008.5
20260509022121 24 140 0.0 1.6 0.00 0.00 0.00 79 1008.7
20260509021618 24 101 0.0 0.0 0.00 0.00 0.00 80 1008.9
20260509021115 24 163 1.6 3.2 0.00 0.00 0.00 79 1008.8
20260509020613 24 0 0.0 0.0 0.00 0.00 0.00 80 1008.4
20260509020109 23 347 0.0 0.0 0.00 0.00 0.00 81 1008.5
20260509015609 23 160 0.0 0.0 0.00 0.00 0.00 82 1008.3
20260509015106 24 112 0.0 3.2 0.00 0.00 0.00 80 1008.2
20260509014602 24 20 0.0 0.0 0.00 0.00 0.00 82 1008.3
20260509014059 23 310 0.0 0.0 0.00 0.00 0.00 83 1008.3
20260509013555 23 304 0.0 0.0 0.00 0.00 0.00 84 1008.2
20260509013051 23 104 0.0 0.0 0.00 0.00 0.00 84 1008.2
20260509012548 23 167 0.0 0.0 0.00 0.00 0.00 85 1008.3
20260509012045 22 50 0.0 0.0 0.00 0.00 0.00 86 1008.0
20260509011543 22 127 0.0 1.6 0.00 0.00 0.00 87 1008.3
20260509011040 22 35 0.0 0.0 0.00 0.00 0.00 88 1008.2
20260509010537 22 17 0.0 0.0 0.00 0.00 0.00 89 1008.0
20260509010034 22 61 0.0 0.0 0.00 0.00 0.00 89 1008.3
20260509005532 22 341 0.0 0.0 0.00 0.00 0.00 89 1008.3
20260509005032 22 280 0.0 0.0 0.00 0.00 0.00 89 1008.1
20260509004529 22 77 0.0 0.0 0.00 0.00 0.00 89 1008.3
20260509004026 21 324 0.0 0.0 0.00 0.00 0.00 90 1008.3
20260509003524 21 347 0.0 0.0 0.00 0.00 0.00 89 1008.1
20260509003021 21 145 0.0 0.0 0.00 0.00 0.00 90 1007.9
20260509002519 21 5 0.0 0.0 0.00 0.00 0.00 90 1008.0
20260509002016 21 23 0.0 0.0 0.00 0.00 0.00 90 1007.9
20260509001513 21 333 0.0 0.0 0.00 0.00 0.00 90 1007.5
20260509001009 21 334 0.0 0.0 0.00 0.00 0.00 90 1007.8
20260509000508 21 268 0.0 0.0 0.00 0.00 0.00 90 1007.8
20260509000003 21 326 0.0 0.0 0.00 0.00 0.00 91 1007.2
20260508235501 21 352 0.0 0.0 0.00 0.00 0.00 91 1007.6
20260508234957 21 135 0.0 0.0 0.00 0.00 0.00 91 1007.5
20260508234454 21 160 1.6 3.2 0.00 0.00 0.00 91 1007.1
20260508233952 21 345 0.0 0.0 0.00 0.00 0.00 92 1007.6
20260508233451 21 117 0.0 0.0 0.00 0.00 0.00 92 1007.6
20260508232948 21 202 0.0 0.0 0.00 0.00 0.00 92 1007.2
20260508232444 21 112 0.0 0.0 0.00 0.00 0.00 92 1007.1
20260508231942 21 133 1.6 3.2 0.00 0.00 0.00 92 1007.1
20260508231439 21 203 0.0 0.0 0.00 0.00 0.00 92 1007.0
20260508230936 21 126 0.0 1.6 0.00 0.00 0.00 92 1007.0
20260508230432 21 84 0.0 0.0 0.00 0.00 0.00 92 1007.1
20260508225929 21 112 0.0 0.0 0.00 0.00 0.00 92 1006.6
20260508225426 21 18 0.0 0.0 0.00 0.00 0.00 92 1006.7
20260508224924 21 64 0.0 0.0 0.00 0.00 0.00 92 1006.7
20260508224421 21 133 0.0 1.6 0.00 0.00 0.00 92 1006.4
20260508223918 21 288 0.0 0.0 0.00 0.00 0.00 92 1006.6
20260508223417 21 44 0.0 0.0 0.00 0.00 0.00 92 1006.6
20260508222913 21 93 0.0 0.0 0.00 0.00 0.00 92 1006.7
20260508222410 22 124 0.0 0.0 0.00 0.00 0.00 92 1006.7
20260508221907 22 117 0.0 0.0 0.00 0.00 0.00 92 1006.5
20260508221402 22 103 0.0 0.0 0.00 0.00 0.00 92 1006.7
20260508220859 22 156 0.0 0.0 0.00 0.00 0.00 92 1006.5
20260508220355 22 160 0.0 0.0 0.00 0.00 0.00 92 1006.4
20260508215852 22 187 0.0 0.0 0.00 0.00 0.00 92 1006.6
20260508215349 22 341 0.0 0.0 0.00 0.00 0.00 92 1006.7
20260508214846 22 142 0.0 0.0 0.00 0.00 0.00 92 1006.7
20260508214343 22 152 1.6 3.2 0.00 0.00 0.00 92 1006.7
20260508213839 22 102 0.0 0.0 0.00 0.00 0.00 92 1006.6
20260508213336 22 141 0.0 0.0 0.00 0.00 0.00 91 1006.7
20260508212827 22 337 0.0 0.0 0.00 0.00 0.00 91 1006.8
20260508212324 22 101 0.0 0.0 0.00 0.00 0.00 91 1006.7
20260508211820 22 309 0.0 0.0 0.00 0.00 0.00 91 1006.8
20260508211315 22 311 0.0 0.0 0.00 0.00 0.00 91 1006.6
20260508210813 22 63 0.0 0.0 0.00 0.00 0.00 90 1006.7
20260508210310 22 28 0.0 0.0 0.00 0.00 0.00 90 1006.6
20260508205807 22 153 1.6 4.8 0.00 0.00 0.00 90 1006.8
20260508205306 22 162 1.6 3.2 0.00 0.00 0.00 90 1006.6
20260508204759 22 107 0.0 0.0 0.00 0.00 0.00 90 1006.8
20260508204256 22 278 0.0 0.0 0.00 0.00 0.00 90 1006.9
20260508203752 22 153 0.0 0.0 0.00 0.00 0.00 89 1006.7
20260508203249 22 321 0.0 0.0 0.00 0.00 0.00 89 1007.0
20260508202744 22 315 0.0 0.0 0.00 0.00 0.00 89 1006.6
20260508202242 22 300 0.0 0.0 0.00 0.00 0.00 89 1006.9
20260508201739 23 178 0.0 0.0 0.00 0.00 0.00 88 1006.9
20260508201235 23 15 0.0 0.0 0.00 0.00 0.00 89 1006.9
20260508200732 23 109 1.6 4.8 0.00 0.00 0.00 88 1007.1
20260508200228 23 137 4.8 4.8 0.00 0.00 0.00 88 1007.2
20260508195725 23 172 0.0 1.6 0.00 0.00 0.00 88 1007.2
20260508195221 23 14 0.0 0.0 0.00 0.00 0.00 88 1007.1
20260508194718 23 166 3.2 4.8 0.00 0.00 0.00 88 1007.3
20260508194215 23 61 0.0 1.6 0.00 0.00 0.00 87 1007.2
20260508193712 23 183 0.0 0.0 0.00 0.00 0.00 87 1007.5
20260508193208 23 73 0.0 0.0 0.00 0.00 0.00 87 1007.5
20260508192705 23 134 3.2 4.8 0.00 0.00 0.00 87 1007.3
20260508192202 23 149 3.2 8.0 0.00 0.00 0.00 87 1007.2
20260508191659 23 212 0.0 0.0 0.00 0.00 0.00 87 1007.3
20260508191155 23 244 0.0 1.6 0.00 0.00 0.00 87 1007.5
20260508190653 23 132 3.2 8.0 0.00 0.00 0.00 87 1007.3
20260508190149 23 62 0.0 1.6 0.00 0.00 0.00 88 1007.5
20260508185646 23 194 0.0 0.0 0.00 0.00 0.00 88 1007.8
20260508185144 23 91 0.0 1.6 0.00 0.00 0.00 88 1007.8
20260508184640 23 187 1.6 1.6 0.00 0.00 0.00 87 1007.9
20260508184137 24 168 0.0 0.0 0.00 0.00 0.00 87 1007.9
20260508183634 24 142 1.6 3.2 0.00 0.00 0.00 87 1008.0
20260508183130 24 337 0.0 0.0 0.00 0.00 0.00 87 1008.0
20260508182626 24 322 0.0 0.0 0.00 0.00 0.00 87 1008.2
20260508182123 24 342 4.8 9.7 0.00 0.00 0.00 87 1008.3
20260508181618 24 171 0.0 0.0 0.00 0.00 0.00 87 1008.4
20260508181116 24 202 0.0 0.0 0.00 0.00 0.00 87 1008.7
20260508180613 24 164 1.6 3.2 0.00 0.00 0.00 87 1008.5
20260508180109 24 92 0.0 0.0 0.00 0.00 0.00 86 1008.7
20260508175606 24 85 1.6 1.6 0.00 0.00 0.00 86 1008.8
20260508175103 24 134 0.0 0.0 0.00 0.00 0.00 86 1008.5
20260508174601 24 195 0.0 0.0 0.00 0.00 0.00 86 1008.8
20260508174057 24 136 0.0 3.2 0.00 0.00 0.00 86 1008.9
20260508173554 24 185 0.0 1.6 0.00 0.00 0.00 86 1008.9
20260508173050 24 110 0.0 0.0 0.00 0.00 0.00 86 1009.0
20260508172548 25 112 1.6 3.2 0.00 0.00 0.00 86 1009.0
20260508172044 25 0 0.0 0.0 0.00 0.00 0.00 86 1009.0
20260508171541 25 53 1.6 4.8 0.00 0.00 0.00 86 1008.9
20260508171038 25 148 1.6 4.8 0.00 0.00 0.00 86 1009.0
20260508170535 25 118 1.6 3.2 0.00 0.00 0.00 85 1008.9
20260508170032 25 307 0.0 3.2 0.00 0.00 0.00 86 1009.1
20260508165529 25 197 6.4 8.0 0.00 0.00 0.00 85 1008.8
20260508165026 25 102 1.6 3.2 0.00 0.00 0.00 85 1009.0
20260508164522 25 248 0.0 0.0 0.00 0.00 0.00 85 1008.9
20260508164019 25 149 1.6 4.8 0.00 0.00 0.00 84 1008.8
20260508163517 25 349 0.0 0.0 0.00 0.00 0.00 85 1008.8
20260508163013 25 114 4.8 12.9 0.00 0.00 0.00 84 1008.5
20260508162510 25 175 3.2 4.8 0.00 0.00 0.00 84 1008.7
20260508162007 25 134 0.0 0.0 0.00 0.00 0.00 84 1008.5
20260508161504 25 49 0.0 0.0 0.00 0.00 0.00 84 1008.9
20260508161001 25 358 0.0 0.0 0.00 0.00 0.00 84 1008.7
20260508160500 25 96 1.6 3.2 0.00 0.00 0.00 83 1008.4
20260508155955 25 206 3.2 9.7 0.00 0.00 0.00 83 1008.2
20260508155453 25 193 6.4 14.5 0.00 0.00 0.00 83 1008.3
20260508154949 25 91 1.6 1.6 0.00 0.00 0.00 83 1008.2
20260508154448 25 154 1.6 3.2 0.00 0.00 0.00 83 1008.1
20260508153944 25 204 1.6 3.2 0.00 0.00 0.00 83 1008.3
20260508153441 25 283 0.0 1.6 0.00 0.00 0.00 82 1007.9
20260508152937 25 146 8.0 11.3 0.00 0.00 0.00 82 1008.0
20260508152434 25 114 0.0 3.2 0.00 0.00 0.00 82 1007.9
20260508151930 25 157 3.2 3.2 0.00 0.00 0.00 81 1007.7
20260508151427 26 180 3.2 8.0 0.00 0.00 0.00 81 1007.9
20260508150924 26 106 3.2 9.7 0.00 0.00 0.00 81 1007.8
20260508150420 26 109 1.6 4.8 0.00 0.00 0.00 81 1007.9
20260508145916 26 264 4.8 9.7 0.00 0.00 0.00 80 1007.8
20260508145413 26 124 4.8 8.0 0.00 0.00 0.00 79 1007.6
20260508144909 26 175 1.6 4.8 0.00 0.00 0.00 79 1007.6
20260508144407 26 137 3.2 11.3 0.00 0.00 0.00 78 1007.2
20260508143904 26 148 1.6 11.3 0.00 0.00 0.00 78 1007.2
20260508143402 26 0 0.0 1.6 0.00 0.00 0.00 77 1006.9
20260508142858 26 193 0.0 3.2 0.00 0.00 0.00 77 1006.8
20260508142355 26 186 3.2 4.8 0.00 0.00 0.00 76 1007.0
20260508141851 26 121 0.0 1.6 0.00 0.00 0.00 76 1006.8
20260508141348 26 179 0.0 0.0 0.00 0.00 0.00 75 1006.9
20260508140846 26 109 4.8 4.8 0.00 0.00 0.00 75 1006.7
20260508140343 26 212 0.0 0.0 0.00 0.00 0.00 74 1006.5
20260508135838 26 176 1.6 8.0 0.00 0.00 0.00 72 1006.6
20260508135335 26 94 0.0 1.6 0.00 0.00 0.00 71 1006.7
20260508134831 26 194 1.6 3.2 0.00 0.00 0.00 70 1006.7
20260508134328 26 335 0.0 0.0 0.00 0.00 0.00 68 1006.6
20260508133825 26 347 0.0 0.0 0.00 0.00 0.00 65 1006.3
20260508133324 26 3 0.0 0.0 0.00 0.00 0.00 64 1006.1
20260508132820 26 149 4.8 4.8 0.00 0.00 0.00 63 1006.3
20260508132318 26 109 0.0 0.0 0.00 0.00 0.00 64 1005.9
20260508131814 26 179 1.6 3.2 0.00 0.00 0.00 63 1005.7
20260508131310 26 111 6.4 9.7 0.00 0.00 0.00 64 1006.1
20260508130807 26 171 8.0 11.3 0.00 0.00 0.00 64 1005.8
20260508130304 27 114 1.6 4.8 0.00 0.00 0.00 63 1005.7
20260508125800 27 88 3.2 8.0 0.00 0.00 0.00 63 1005.9
20260508125256 27 199 3.2 11.3 0.00 0.00 0.00 63 1005.5
20260508124754 27 231 0.0 0.0 0.00 0.00 0.00 64 1005.6
20260508124251 28 90 9.7 17.7 0.00 0.00 0.00 68 1005.2
20260508123749 30 326 1.6 4.8 0.00 0.00 0.00 63 1005.1
20260508123246 30 79 9.7 12.9 0.00 0.00 0.00 55 1004.7
20260508122742 30 353 0.0 0.0 0.00 0.00 0.00 55 1004.8
20260508122239 30 119 0.0 0.0 0.00 0.00 0.00 53 1004.6
20260508121737 31 305 0.0 0.0 0.00 0.00 0.00 52 1004.5
20260508121235 31 88 1.6 3.2 0.00 0.00 0.00 51 1004.5
20260508120732 31 34 0.0 1.6 0.00 0.00 0.00 52 1004.4
20260508120230 31 20 1.6 3.2 0.00 0.00 0.00 51 1004.5
20260508115728 31 285 0.0 1.6 0.00 0.00 0.00 51 1004.3
20260508115225 31 193 1.6 3.2 0.00 0.00 0.00 50 1004.3
20260508114721 31 46 0.0 1.6 0.00 0.00 0.00 50 1004.3
20260508114218 31 139 0.0 1.6 0.00 0.00 0.00 50 1004.4
20260508113714 31 313 0.0 0.0 0.00 0.00 0.00 51 1004.3
20260508113213 31 140 0.0 0.0 0.00 0.00 0.00 51 1004.5
20260508112709 31 157 0.0 1.6 0.00 0.00 0.00 50 1004.6
20260508112206 31 103 3.2 4.8 0.00 0.00 0.00 50 1004.4
20260508111702 31 52 4.8 8.0 0.00 0.00 0.00 50 1004.6
20260508111200 31 87 1.6 4.8 0.00 0.00 0.00 51 1004.5
20260508110658 31 145 0.0 1.6 0.00 0.00 0.00 52 1004.7
20260508110155 31 155 0.0 3.2 0.00 0.00 0.00 52 1004.7
20260508105654 31 154 1.6 4.8 0.00 0.00 0.00 51 1004.6
20260508105151 31 277 8.0 9.7 0.00 0.00 0.00 51 1004.7
20260508104649 32 173 0.0 3.2 0.00 0.00 0.00 49 1004.5
20260508104145 32 301 0.0 0.0 0.00 0.00 0.00 50 1004.5
20260508103643 32 347 0.0 0.0 0.00 0.00 0.00 50 1004.6
20260508103140 31 332 0.0 1.6 0.00 0.00 0.00 51 1004.5
20260508102637 31 134 3.2 9.7 0.00 0.00 0.00 51 1004.4
20260508102135 31 299 0.0 0.0 0.00 0.00 0.00 51 1004.5
20260508101632 31 193 0.0 1.6 0.00 0.00 0.00 52 1004.4
20260508101129 32 116 9.7 11.3 0.00 0.00 0.00 51 1004.9
20260508100626 32 348 0.0 1.6 0.00 0.00 0.00 51 1004.7
20260508100125 32 290 0.0 0.0 0.00 0.00 0.00 51 1004.9
20260508095621 31 42 1.6 1.6 0.00 0.00 0.00 52 1004.9
20260508095119 30 67 1.6 4.8 0.00 0.00 0.00 54 1004.9
20260508094615 31 123 0.0 1.6 0.00 0.00 0.00 53 1004.8
20260508094111 31 186 1.6 3.2 0.00 0.00 0.00 53 1005.4
20260508093609 31 1 3.2 4.8 0.00 0.00 0.00 52 1005.1
20260508093107 31 173 4.8 9.7 0.00 0.00 0.00 51 1005.1
20260508092603 31 209 0.0 0.0 0.00 0.00 0.00 53 1005.2
20260508092102 31 82 0.0 1.6 0.00 0.00 0.00 52 1005.1
20260508091559 32 98 1.6 3.2 0.00 0.00 0.00 51 1005.2
20260508091055 32 285 0.0 0.0 0.00 0.00 0.00 52 1005.3
20260508090554 32 126 1.6 3.2 0.00 0.00 0.00 51 1005.2
20260508090050 32 120 0.0 0.0 0.00 0.00 0.00 51 1005.4
20260508085547 31 137 4.8 9.7 0.00 0.00 0.00 52 1005.6
20260508085044 31 256 0.0 0.0 0.00 0.00 0.00 53 1005.6
20260508084541 31 313 1.6 1.6 0.00 0.00 0.00 52 1005.7
20260508084038 31 285 0.0 0.0 0.00 0.00 0.00 53 1005.7
20260508083535 31 137 1.6 4.8 0.00 0.00 0.00 53 1005.6
20260508083032 31 198 0.0 1.6 0.00 0.00 0.00 52 1005.7
20260508082528 31 64 4.8 9.7 0.00 0.00 0.00 52 1005.9
20260508082025 30 315 1.6 8.0 0.00 0.00 0.00 54 1005.9
20260508081523 30 149 0.0 1.6 0.00 0.00 0.00 56 1006.0
20260508081018 30 103 3.2 8.0 0.00 0.00 0.00 56 1006.3
20260508080516 30 100 0.0 1.6 0.00 0.00 0.00 56 1006.4
20260508080014 30 257 4.8 9.7 0.00 0.00 0.00 55 1006.5
20260508075510 30 96 1.6 3.2 0.00 0.00 0.00 55 1006.7
20260508075008 30 178 3.2 4.8 0.00 0.00 0.00 56 1006.5
20260508074506 31 343 3.2 4.8 0.00 0.00 0.00 54 1006.7
20260508074002 31 16 1.6 3.2 0.00 0.00 0.00 53 1006.8
20260508073459 31 65 0.0 1.6 0.00 0.00 0.00 55 1006.9
20260508072956 31 216 0.0 1.6 0.00 0.00 0.00 54 1006.9
20260508072452 31 346 0.0 0.0 0.00 0.00 0.00 56 1006.7
20260508071949 31 339 1.6 3.2 0.00 0.00 0.00 54 1006.8
20260508071448 31 95 0.0 1.6 0.00 0.00 0.00 56 1006.9
20260508070945 31 32 0.0 0.0 0.00 0.00 0.00 57 1007.1
20260508070443 31 296 0.0 0.0 0.00 0.00 0.00 58 1006.9
20260508065941 31 60 0.0 1.6 0.00 0.00 0.00 57 1006.8
20260508065438 31 68 0.0 1.6 0.00 0.00 0.00 57 1007.0
20260508064936 30 261 0.0 0.0 0.00 0.00 0.00 58 1007.0
20260508064433 30 145 1.6 3.2 0.00 0.00 0.00 60 1007.1
20260508063931 30 288 0.0 1.6 0.00 0.00 0.00 61 1007.5
20260508063428 30 306 0.0 0.0 0.00 0.00 0.00 62 1007.3
20260508062925 30 33 1.6 3.2 0.00 0.00 0.00 62 1007.5
20260508062423 30 80 0.0 0.0 0.00 0.00 0.00 61 1007.8
20260508061920 30 50 0.0 1.6 0.00 0.00 0.00 62 1007.7
20260508061418 29 102 1.6 1.6 0.00 0.00 0.00 62 1008.0
20260508060913 29 336 0.0 0.0 0.00 0.00 0.00 64 1007.9
20260508060411 30 326 0.0 0.0 0.00 0.00 0.00 63 1008.0
20260508055908 30 288 0.0 0.0 0.00 0.00 0.00 63 1008.0
20260508055405 30 258 0.0 0.0 0.00 0.00 0.00 63 1008.2
20260508054901 29 182 0.0 0.0 0.00 0.00 0.00 65 1008.1
20260508054358 29 141 0.0 1.6 0.00 0.00 0.00 64 1008.2
20260508053855 29 53 0.0 0.0 0.00 0.00 0.00 64 1008.2
20260508053352 29 349 0.0 0.0 0.00 0.00 0.00 64 1008.4
20260508052850 30 352 1.6 4.8 0.00 0.00 0.00 64 1008.7
20260508052348 28 343 0.0 0.0 0.00 0.00 0.00 68 1008.7
20260508051843 28 122 0.0 0.0 0.00 0.00 0.00 68 1008.7
20260508051339 27 335 0.0 0.0 0.00 0.00 0.00 71 1008.4
20260508050835 27 4 3.2 4.8 0.00 0.00 0.00 71 1008.8
20260508050333 27 26 4.8 4.8 0.00 0.00 0.00 71 1008.8
20260508045828 28 78 0.0 1.6 0.00 0.00 0.00 69 1008.7
20260508045326 28 16 0.0 0.0 0.00 0.00 0.00 70 1008.7
20260508044823 28 18 1.6 3.2 0.00 0.00 0.00 69 1009.0
20260508044320 27 112 0.0 1.6 0.00 0.00 0.00 71 1009.0
20260508043816 27 323 0.0 0.0 0.00 0.00 0.00 72 1008.8
20260508043314 28 1 0.0 0.0 0.00 0.00 0.00 70 1008.8
20260508042810 28 357 1.6 3.2 0.00 0.00 0.00 70 1008.7
20260508042308 28 18 0.0 0.0 0.00 0.00 0.00 71 1008.5
20260508041804 28 83 1.6 3.2 0.00 0.00 0.00 73 1008.7
20260508041301 27 326 0.0 0.0 0.00 0.00 0.00 75 1008.7
20260508040757 27 129 0.0 1.6 0.00 0.00 0.00 74 1008.8
20260508040255 27 96 0.0 1.6 0.00 0.00 0.00 76 1008.8
20260508035752 27 9 0.0 0.0 0.00 0.00 0.00 76 1008.9
20260508035249 27 85 0.0 1.6 0.00 0.00 0.00 75 1009.1
20260508034745 27 336 3.2 9.7 0.00 0.00 0.00 75 1008.9
20260508034243 27 295 3.2 3.2 0.00 0.00 0.00 76 1009.0
20260508033740 26 333 3.2 8.0 0.00 0.00 0.00 77 1009.0
20260508033238 26 306 0.0 0.0 0.00 0.00 0.00 80 1008.9
20260508032736 26 131 0.0 1.6 0.00 0.00 0.00 81 1009.0
20260508032232 26 119 0.0 0.0 0.00 0.00 0.00 80 1009.1
20260508031729 26 122 0.0 0.0 0.00 0.00 0.00 82 1009.3
20260508031225 25 122 1.6 3.2 0.00 0.00 0.00 83 1008.9
20260508030722 26 166 0.0 1.6 0.00 0.00 0.00 83 1008.9
20260508030220 25 138 0.0 0.0 0.00 0.00 0.00 83 1009.0
20260508025716 25 340 0.0 0.0 0.00 0.00 0.00 85 1009.0
20260508025213 25 152 1.6 3.2 0.00 0.00 0.00 85 1009.0